EST,Max TemperatureF,Mean TemperatureF,Min TemperatureF,Max Dew PointF,MeanDew PointF,Min DewpointF,Max Humidity, Mean Humidity, Min Humidity, Max Sea Level PressureIn, Mean Sea Level PressureIn, Min Sea Level PressureIn, Max VisibilityMiles, Mean VisibilityMiles, Min VisibilityMiles, Max Wind SpeedMPH, Mean Wind SpeedMPH, Max Gust SpeedMPH,PrecipitationIn, CloudCover, Events, WindDirDegrees
2012-11-1,62,48,35,26,22,15,65,37,18,30.01,29.96,29.90,10,10,10,16,7,22,0.00,0,,280
2012-11-2,73,57,41,44,38,26,73,50,33,30.02,29.98,29.91,10,10,10,17,6,24,0.00,1,,264
2012-11-3,78,60,41,54,46,39,93,66,36,30.12,30.04,29.99,10,10,8,15,1,18,0.00,0,,242
2012-11-4,72,61,50,57,51,40,93,72,57,30.02,29.99,29.96,10,10,7,14,7,22,0.00,2,Rain,278
2012-11-5,62,50,39,47,37,31,87,62,31,30.10,30.03,29.96,10,10,6,8,3,,0.03,1,Rain,332
2012-11-6,50,47,44,48,44,38,100,88,66,30.01,29.96,29.92,10,6,2,12,4,58,1.09,8,Rain-Thunderstorm,81
2012-11-7,48,45,41,45,42,39,100,90,79,30.06,29.95,29.89,10,8,2,12,3,16,0.08,7,Rain,310
2012-11-8,60,48,37,42,37,33,100,75,36,30.21,30.15,30.07,10,8,2,9,3,,0.00,0,,305
2012-11-9,66,49,32,40,35,28,100,68,23,30.31,30.25,30.20,10,8,4,9,1,,0.00,0,,294
2012-11-10,69,52,35,45,38,33,100,67,26,30.38,30.32,30.27,10,9,4,7,1,,0.00,0,,191
2012-11-11,66,54,41,52,46,37,89,73,59,30.44,30.36,30.31,10,10,7,9,2,,0.00,3,,118
2012-11-12,66,57,46,63,56,45,100,90,73,30.31,30.25,30.17,10,8,2,17,6,29,0.00,7,Rain,181
2012-11-13,57,46,35,45,33,31,93,66,36,30.34,30.30,30.26,10,10,10,13,8,17,0.00,2,,312
2012-11-14,50,46,41,40,33,29,89,62,50,30.43,30.34,30.30,10,10,6,12,5,22,0.01,5,Rain,72
2012-11-15,52,46,39,44,40,37,97,85,68,30.35,30.29,30.23,10,7,3,9,4,17,0.00,7,,64
2012-11-16,61,47,33,41,37,34,100,84,42,30.35,30.29,30.25,10,5,1,5,0,,0.00,0,,17
2012-11-17,59,48,37,36,31,25,93,54,35,30.45,30.39,30.35,10,10,7,13,4,24,0.00,0,,66
2012-11-18,63,54,44,47,37,25,77,56,42,30.42,30.36,30.30,10,10,10,10,5,17,0.00,2,,66
2012-11-19,60,51,42,52,46,38,88,75,63,30.33,30.26,30.19,10,10,8,9,2,,0.00,6,,7
2012-11-20,66,57,46,51,44,39,97,71,37,30.19,30.13,30.06,10,10,6,8,1,16,0.00,2,,303
2012-11-21,69,55,41,45,42,40,96,68,38,30.18,30.14,30.09,10,10,6,7,1,,0.00,1,,314
2012-11-22,66,52,39,42,38,31,96,66,29,30.28,30.21,30.17,10,9,6,5,1,,0.00,0,,260
2012-11-23,71,55,39,50,43,37,97,70,36,30.21,30.12,30.04,10,9,6,20,5,28,0.00,2,,287
2012-11-24,48,42,33,37,23,16,70,50,28,30.19,30.14,30.08,10,10,10,16,11,23,0.00,0,,312
2012-11-25,57,42,28,25,20,11,78,49,16,30.23,30.16,30.10,10,10,8,6,2,,0.00,0,,254
2012-11-26,66,48,30,35,26,19,85,49,17,30.25,30.19,30.15,10,10,9,8,1,,0.00,2,,195
2012-11-27,55,50,45,54,47,37,94,82,54,30.24,30.15,30.11,10,8,4,14,5,,0.00,8,Rain,266
2012-11-28,57,47,36,41,35,28,93,70,41,30.40,30.33,30.24,10,9,6,10,6,,0.00,3,,307
2012-11-29,60,44,28,39,32,28,96,68,33,30.45,30.40,30.35,10,9,5,7,1,,0.00,0,,172
2012-11-30,62,50,37,46,40,32,93,71,52,30.41,30.35,30.29,10,10,8,6,1,,0.00,6,,148